Location: Newark
(42.8481°N, 0.4872°E)
Time: 17:37:46
(UTC+00:00)

Vanguard 1 - Pass Details

Date: 27 October 2020
Orbit: 650 x 3833 km, 34.2° (Epoch: 28 November)

Event Time Altitude Azimuth Distance (km) Brightness Sun altitude
Rises 18:28:42 0° 281° (W) 7,700 16.2 -17.4°
Reaches altitude 10° 18:34:53 10° 275° (W) 6,346 15.4 -18.6°
Maximum altitude 18:50:52 38° 217° (SW) 3,257 12.9 -21.5°
Drops below altitude 10° 19:00:33 10° 154° (SSE) 3,868 12.8 -23.3°
Enters shadow 19:01:28 - 151° (SSE) 4,064 12.9 -23.4°
Sets 19:03:20 0° 145° (SE) 4,508 - -23.8°
